Weather History for Grand Forks AFB, ND

Change the Weather History Date:

Thursday, January 23, 2014

  Actual Average Record
Temperature  
Mean Temperature 2 °F -  
Max Temperature 26 °F 13 °F 39 °F (2006)
Min Temperature -20 °F 0 °F -22 °F (2003)
Degree Days  
Heating Degree Days 64    
Moisture  
Dew Point -9 °F    
Average Humidity 69    
Maximum Humidity 80    
Minimum Humidity 57    
Precipitation  
Precipitation 0.00 in - - ()
Sea Level Pressure  
Sea Level Pressure 30.39 in    
Wind  
Wind Speed 12 mph (WSW)    
Max Wind Speed 24 mph    
Max Gust Speed 33 mph    
Visibility 10 miles    
Events Snow    
Averages and records for this station are not official NWS values.
T = Trace of Precipitation, MM = Missing Value Source: NWS Daily Summary

Daily Weather History Graph

Daily Weather History Graph

Search for Another Location

Airport:

Trip Planner

Search our weather history database for the weather conditions in past years. The results will help you decide how hot, cold, wet, or windy it might be!

Date:

Astronomy

Jan. 23, 2014 Rise Set
Actual Time 8:07 AM CST 5:15 PM CST
Civil Twilight 7:33 AM CST 5:50 PM CST
Nautical Twilight 6:55 AM CST 6:28 PM CST
Astronomical Twilight 6:18 AM CST 7:04 PM CST
Moon 12:21 AM CST (1/23) 11:08 AM CST (1/23)
Length of Visible Light 10h 16m
Length of Day
9h 08m
Waning Gibbous, 55% of the Moon is Illuminated
Jan 23
Waning Gibbous
Jan 23
Last Quarter
Jan 30
New
Feb 6
First Quarter
Feb 14
Full

Hourly Weather History & Observations

Time (CST) Temp. Windchill Dew Point Humidity Pressure Visibility Wind Dir Wind Speed Gust Speed Precip Events Conditions
12:58 AM -17.7 °F -35.7 °F -24.2 °F 72% 30.80 in 10.0 mi NW 8.1 mph - 0.00 in   Clear
1:58 AM -14.3 °F -31.5 °F -21.6 °F 69% 30.81 in 10.0 mi NW 8.1 mph - N/A   Clear
2:58 AM -14.1 °F -32.6 °F -21.3 °F 70% 30.82 in 10.0 mi NW 9.2 mph - N/A   Clear
3:58 AM -17.1 °F -35.0 °F -24.0 °F 71% 30.83 in 10.0 mi NW 8.1 mph - N/A   Clear
4:58 AM -18.0 °F -36.1 °F -24.3 °F 73% 30.82 in 10.0 mi WNW 8.1 mph - N/A   Clear
5:58 AM -19.5 °F -36.4 °F -26.1 °F 71% 30.82 in 10.0 mi West 6.9 mph - N/A   Clear
6:58 AM -19.8 °F -35.1 °F -26.7 °F 71% 30.82 in 10.0 mi West 5.8 mph - N/A   Clear
7:33 AM -20.2 °F -35.5 °F -27.4 °F 69% 30.69 in 1.8 mi West 5.8 mph - N/A   Haze
7:43 AM -20.2 °F -35.5 °F -27.4 °F 69% 30.69 in 8.0 mi West 5.8 mph - N/A   Clear
7:48 AM -20.2 °F -33.5 °F -27.4 °F 69% 30.69 in 10.0 mi WSW 4.6 mph - N/A   Clear
7:58 AM -20.9 °F -31.7 °F -27.6 °F 71% 30.81 in 10.0 mi WSW 3.5 mph - N/A   Clear
8:58 AM -17.7 °F -35.7 °F -25.6 °F 67% 30.79 in 10.0 mi West 8.1 mph - 0.00 in   Clear
9:58 AM -14.3 °F -31.5 °F -23.4 °F 63% 30.75 in 10.0 mi SW 8.1 mph - 0.00 in   Clear
10:58 AM -8.7 °F -24.7 °F -19.7 °F 59% 30.73 in 10.0 mi WSW 8.1 mph - N/A   Clear
11:58 AM -5.1 °F -21.5 °F -16.4 °F 58% 30.68 in 10.0 mi SW 9.2 mph - N/A   Clear
12:58 PM -2.2 °F -21.5 °F -13.0 °F 60% 30.61 in 10.0 mi South 13.8 mph - 0.00 in   Clear
1:58 PM 1.4 °F -16.1 °F -10.8 °F 57% 30.55 in 10.0 mi SSW 12.7 mph - N/A   Clear
2:58 PM 2.8 °F -15.0 °F -9.0 °F 58% 30.48 in 10.0 mi South 13.8 mph - 0.00 in   Clear
3:58 PM 4.6 °F -15.2 °F -7.4 °F 58% 30.40 in 10.0 mi South 18.4 mph - 0.00 in   Clear
4:58 PM 4.6 °F -15.7 °F -6.0 °F 62% 30.32 in 10.0 mi South 19.6 mph - 0.00 in   Clear
5:05 PM 5.0 °F -15.2 °F -5.8 °F 61% 30.20 in 10.0 mi South 19.6 mph - N/A Snow Light Snow
5:10 PM 5.0 °F -14.7 °F -5.8 °F 61% 30.20 in 10.0 mi South 18.4 mph - N/A   Scattered Clouds
5:36 PM 5.0 °F -16.7 °F -4.0 °F 66% 30.16 in 10.0 mi SSW 23.0 mph - N/A Snow Light Snow
5:58 PM 6.1 °F -14.8 °F -3.1 °F 66% 30.24 in 10.0 mi South 21.9 mph - 0.00 in Snow Light Snow
6:14 PM 6.8 °F -14.3 °F -0.4 °F 72% 30.11 in 10.0 mi SSW 23.0 mph - N/A   Scattered Clouds
6:58 PM 9.0 °F -11.8 °F 1.0 °F 70% 30.15 in 10.0 mi SSW 24.2 mph - 0.00 in   Overcast
7:58 PM 11.8 °F -5.8 °F 3.9 °F 71% 30.09 in 10.0 mi SW 18.4 mph 24.2 mph N/A   Clear
8:58 PM 14.7 °F -3.4 °F 7.0 °F 71% 29.99 in 10.0 mi SW 21.9 mph 26.5 mph N/A   Partly Cloudy
9:58 PM 18.5 °F 2.9 °F 11.5 °F 74% 29.90 in 10.0 mi WSW 18.4 mph 25.3 mph N/A   Mostly Cloudy
10:16 PM 19.4 °F 2.1 °F 14.0 °F 80% 29.77 in 9.0 mi WSW 24.2 mph 29.9 mph N/A Snow Light Snow
10:27 PM 21.2 °F 5.2 °F 15.8 °F 80% 29.76 in 9.0 mi WSW 21.9 mph 31.1 mph N/A   Overcast
10:58 PM 22.8 °F 8.9 °F 17.1 °F 79% 29.83 in 10.0 mi West 17.3 mph 29.9 mph 0.00 in   Overcast
11:02 PM 23.0 °F 7.6 °F 17.6 °F 80% 29.75 in 10.0 mi West 21.9 mph 28.8 mph N/A   Overcast
11:09 PM 23.0 °F 9.2 °F 17.6 °F 80% 29.75 in 10.0 mi West 17.3 mph 31.1 mph N/A   Overcast
11:58 PM 26.2 °F 11.5 °F 19.8 °F 76% 29.78 in 10.0 mi West 23.0 mph 33.4 mph 0.00 in   Overcast